Location: Gollag?dem
(16.8053°N, 80.8024°E)
Time: 12:58:56
(UTC+00:00)

Cosmos 1812 Rocket - Pass Details

Date: 13 August 2020
Orbit: 606 x 631 km, 82.5° (Epoch: 24 September)

Event Time Altitude Azimuth Distance (km) Brightness Sun altitude
Exits shadow 22:50:23 25° 177° (S) 1,238 4.9 -21.2°
Maximum altitude 22:52:52 77° 95° (E) 622 3.6 -20.6°
Drops below altitude 10° 22:57:11 10° 8° (N) 1,952 6.5 -19.7°
Sets 22:59:23 0° 7° (N) 2,858 7.4 -19.2°
